DW2004 Weather Reports


Display with metric or nautical units.
time (UTC)temp
F
wind
direction
speed
MPH
gust
MPH
rain 1hr
in
rain 24hr
in
rain mn
in
humidity
%
barometer
mb
20260507020502 61 36 2.0 6.0 0.00 0.03 0.03 70 1016.9
20260507020009 61 64 2.0 12.0 0.00 0.03 0.03 71 1016.8
20260507015502 61 36 3.0 12.0 0.00 0.03 0.03 71 1016.6
20260507014505 62 21 3.0 9.0 0.00 0.03 0.03 71 1016.2
20260507014002 62 53 2.0 6.0 0.00 0.03 0.03 71 1016.0
20260507013503 62 23 1.0 5.0 0.00 0.03 0.03 72 1015.9
20260507013005 62 5 0.0 9.0 0.00 0.03 0.03 72 1015.8
20260507012503 62 21 3.0 9.0 0.00 0.03 0.03 72 1015.6
20260507011507 62 5 2.0 9.0 0.00 0.03 0.03 72 1015.5
20260507011004 62 34 1.0 11.0 0.00 0.03 0.03 71 1015.5
20260507010502 62 14 2.0 11.0 0.00 0.03 0.03 71 1015.3
20260507010008 62 49 1.0 9.0 0.00 0.03 0.03 72 1015.3
20260507005502 63 326 2.0 9.0 0.00 0.03 0.03 71 1015.3
20260507005002 63 337 1.0 7.0 0.00 0.03 0.03 71 1015.3
20260507004506 63 330 1.0 8.0 0.00 0.03 0.03 70 1015.2
20260507004002 63 37 2.0 6.0 0.00 0.03 0.03 71 1015.1
20260507003504 63 54 1.0 6.0 0.00 0.03 0.03 71 1015.1
20260507002502 63 37 1.0 8.0 0.00 0.03 0.03 70 1014.9
20260507002002 63 51 1.0 7.0 0.00 0.03 0.03 71 1014.9
20260507001506 63 51 1.0 7.0 0.00 0.03 0.03 70 1015.0
20260507001002 63 56 1.0 6.0 0.00 0.03 0.03 71 1014.8
20260507000006 63 51 1.0 7.0 0.00 0.03 0.03 70 1014.6
20260506235001 64 75 1.0 6.0 0.00 0.03 0.03 70 1014.6
20260506234504 64 48 1.0 5.0 0.00 0.03 0.03 70 1014.6
20260506233501 64 60 2.0 9.0 0.00 0.03 0.03 70 1014.5
20260506232501 64 5 3.0 9.0 0.00 0.03 0.03 70 1014.4
20260506232000 64 52 1.0 9.0 0.00 0.03 0.03 70 1014.4
20260506231507 64 25 2.0 9.0 0.00 0.03 0.03 70 1014.4
20260506231001 64 55 3.0 9.0 0.00 0.03 0.03 70 1014.4
20260506230502 64 41 1.0 10.0 0.00 0.03 0.03 70 1014.3
20260506225502 65 63 1.0 10.0 0.00 0.03 0.03 70 1014.1
20260506225002 65 57 0.0 5.0 0.00 0.03 0.03 70 1014.1
20260506224505 65 40 0.0 10.0 0.00 0.03 0.03 70 1014.2
20260506224002 65 37 2.0 10.0 0.00 0.03 0.03 68 1014.1
20260506223005 65 54 2.0 8.0 0.00 0.03 0.03 69 1013.9
20260506222503 65 31 0.0 6.0 0.00 0.03 0.03 70 1014.0
20260506221002 65 55 0.0 5.0 0.00 0.03 0.03 68 1014.1
20260506220502 65 44 1.0 5.0 0.00 0.03 0.03 68 1014.1
20260506220007 66 28 1.0 8.0 0.00 0.03 0.03 67 1014.0
20260506215501 66 342 1.0 9.0 0.00 0.03 0.03 68 1013.8
20260506215001 65 51 0.0 7.0 0.00 0.03 0.03 68 1013.8
20260506214504 66 17 2.0 8.0 0.00 0.03 0.03 68 1013.9
20260506214002 65 68 1.0 9.0 0.00 0.03 0.03 70 1013.8
20260506213501 65 47 3.0 9.0 0.00 0.03 0.03 67 1014.0
20260506213005 65 71 1.0 4.0 0.00 0.03 0.03 67 1014.1
20260506212501 64 9 0.0 6.0 0.00 0.03 0.03 70 1014.2
20260506212001 64 40 0.0 6.0 0.00 0.03 0.03 71 1014.4
20260506211504 63 9 0.0 5.0 0.00 0.03 0.03 69 1014.5
20260506211001 64 22 1.0 8.0 0.00 0.03 0.03 70 1014.4
20260506210501 64 72 0.0 8.0 0.00 0.03 0.03 70 1014.1
20260506210006 63 92 1.0 4.0 0.00 0.03 0.03 70 1013.9
20260506205501 63 67 0.0 4.0 0.00 0.03 0.03 70 1014.1
20260506205001 63 30 1.0 6.0 0.00 0.03 0.03 69 1014.2
20260506204504 64 44 0.0 6.0 0.00 0.03 0.03 67 1014.4
20260506204001 64 28 0.0 5.0 0.00 0.03 0.03 69 1014.3
20260506203501 64 25 1.0 5.0 0.00 0.03 0.03 67 1014.3
20260506203006 64 9 1.0 6.0 0.00 0.03 0.03 69 1014.3
20260506202502 64 17 1.0 6.0 0.00 0.03 0.03 69 1014.4
20260506202001 63 42 1.0 4.0 0.00 0.03 0.03 69 1014.6
20260506201504 63 51 1.0 7.0 0.00 0.03 0.03 69 1014.9
20260506201001 63 61 0.0 7.0 0.00 0.03 0.03 67 1014.8
20260506200501 64 63 1.0 5.0 0.00 0.03 0.03 66 1015.1
20260506200007 63 75 1.0 5.0 0.00 0.03 0.03 69 1015.2
20260506195501 63 52 1.0 5.0 0.00 0.03 0.03 70 1015.2
20260506195002 62 95 1.0 4.0 0.00 0.03 0.03 68 1015.3
20260506194504 62 72 1.0 4.0 0.00 0.03 0.03 69 1015.3
20260506193005 60 71 0.0 6.0 0.00 0.03 0.03 72 1015.4
20260506192501 60 51 1.0 6.0 0.00 0.03 0.03 73 1015.5
20260506192001 60 69 0.0 4.0 0.00 0.03 0.03 72 1015.4
20260506191506 60 55 1.0 6.0 0.00 0.03 0.03 72 1015.5
20260506191001 60 360 1.0 9.0 0.00 0.03 0.03 72 1015.5
20260506190007 60 63 1.0 6.0 0.00 0.03 0.03 73 1015.3
20260506185501 60 360 2.0 9.0 0.00 0.03 0.03 73 1015.0
20260506185001 59 43 3.0 11.0 0.00 0.03 0.03 73 1014.6
20260506184001 59 323 1.0 14.0 0.00 0.03 0.03 75 1014.4
20260506183501 60 322 3.0 12.0 0.00 0.03 0.03 73 1014.4
20260506183005 60 347 3.0 10.0 0.00 0.03 0.03 73 1014.2
20260506181504 59 360 1.0 9.0 0.00 0.03 0.03 75 1014.7
20260506180501 57 348 3.0 11.0 0.00 0.03 0.03 77 1014.7
20260506180007 57 5 3.0 11.0 0.00 0.03 0.03 78 1014.9
20260506175501 56 9 1.0 9.0 0.00 0.03 0.03 79 1014.8
20260506175000 56 333 3.0 9.0 0.00 0.03 0.03 78 1014.7
20260506174505 56 34 2.0 11.0 0.00 0.03 0.03 79 1014.6
20260506173501 56 80 1.0 10.0 0.00 0.03 0.03 81 1014.5
20260506173006 56 39 0.0 9.0 0.00 0.03 0.03 80 1014.6
20260506172501 55 25 2.0 10.0 0.00 0.03 0.03 79 1014.7
20260506172001 55 19 2.0 11.0 0.00 0.03 0.03 80 1014.9
20260506171506 55 18 2.0 12.0 0.00 0.03 0.03 81 1015.0
20260506171001 55 37 3.0 12.0 0.00 0.03 0.03 82 1015.0
20260506170501 55 32 1.0 9.0 0.00 0.03 0.03 82 1015.4
20260506170005 55 29 1.0 9.0 0.00 0.03 0.03 81 1015.5
20260506165000 55 68 2.0 7.0 0.00 0.03 0.03 83 1015.5
20260506164000 55 78 1.0 4.0 0.00 0.03 0.03 84 1015.6
20260506163500 55 61 1.0 5.0 0.00 0.03 0.03 84 1015.8
20260506163004 55 78 1.0 9.0 0.01 0.03 0.03 85 1015.7
20260506162500 54 68 2.0 9.0 0.01 0.03 0.03 86 1015.2
20260506162000 54 5 3.0 10.0 0.01 0.03 0.03 85 1014.8
20260506161504 54 347 3.0 10.0 0.02 0.03 0.03 85 1015.1
20260506161000 54 360 2.0 9.0 0.03 0.03 0.03 86 1015.4
20260506160459 55 24 2.0 6.0 0.03 0.03 0.03 87 1015.3
20260506160006 55 9 1.0 5.0 0.03 0.03 0.03 87 1015.3
20260506155500 55 10 1.0 7.0 0.03 0.03 0.03 87 1014.9
20260506155000 54 32 1.0 7.0 0.03 0.03 0.03 87 1015.0
20260506154504 54 36 1.0 9.0 0.03 0.03 0.03 88 1014.4
20260506154000 54 351 1.0 4.0 0.03 0.03 0.03 88 1014.6
20260506153500 54 319 0.0 1.0 0.03 0.03 0.03 87 1015.8
20260506152501 54 319 0.0 5.0 0.02 0.02 0.02 85 1016.9
20260506151959 54 319 0.0 5.0 0.02 0.02 0.02 85 1017.0
20260506151504 54 329 0.0 1.0 0.01 0.01 0.01 85 1016.4
20260506150959 54 326 0.0 5.0 0.00 0.00 0.00 83 1016.6
20260506150501 54 327 0.0 5.0 0.00 0.00 0.00 82 1016.3
20260506150005 54 9 0.0 5.0 0.00 0.00 0.00 82 1016.3
20260506145459 54 322 0.0 5.0 0.00 0.00 0.00 82 1015.8
20260506145000 54 310 0.0 5.0 0.00 0.00 0.00 82 1015.6
20260506144503 54 67 0.0 10.0 0.00 0.00 0.00 82 1015.0
20260506144000 54 24 2.0 10.0 0.00 0.00 0.00 81 1014.5
20260506143459 54 24 1.0 6.0 0.00 0.00 0.00 81 1015.0
20260506143003 54 37 0.0 4.0 0.00 0.00 0.00 80 1015.8
20260506142459 54 346 0.0 9.0 0.00 0.00 0.00 79 1015.7
20260506141959 54 360 2.0 9.0 0.00 0.00 0.00 79 1015.7
20260506141503 54 5 1.0 9.0 0.00 0.00 0.00 79 1015.5
20260506140005 54 11 0.0 9.0 0.00 0.00 0.00 80 1015.3
20260506135459 54 360 2.0 10.0 0.00 0.00 0.00 79 1014.8
20260506135000 54 58 1.0 10.0 0.00 0.00 0.00 80 1014.7
20260506134504 54 5 2.0 10.0 0.00 0.00 0.00 80 1014.4
20260506134000 54 28 1.0 8.0 0.00 0.00 0.00 80 1014.4
20260506133500 54 61 1.0 6.0 0.00 0.00 0.00 81 1014.4
20260506133003 54 22 1.0 8.0 0.00 0.00 0.00 81 1014.4
20260506132459 54 11 1.0 8.0 0.00 0.00 0.00 80 1014.4
20260506131959 54 307 2.0 10.0 0.00 0.00 0.00 80 1014.4
20260506131503 54 360 1.0 10.0 0.00 0.00 0.00 80 1014.2
20260506131001 54 28 1.0 6.0 0.00 0.00 0.00 80 1014.1
20260506130459 54 314 2.0 6.0 0.00 0.00 0.00 80 1014.0
20260506130005 54 34 1.0 11.0 0.00 0.00 0.00 81 1014.1
20260506125459 53 46 1.0 8.0 0.00 0.00 0.00 81 1013.8
20260506124959 53 39 1.0 8.0 0.00 0.00 0.00 81 1014.0
20260506124503 53 355 1.0 9.0 0.00 0.00 0.00 80 1013.9
20260506123959 53 341 2.0 9.0 0.00 0.00 0.00 80 1014.0
20260506123459 53 41 2.0 9.0 0.00 0.00 0.00 80 1013.9
20260506123003 54 345 0.0 9.0 0.00 0.00 0.00 83 1013.8
20260506122500 54 322 1.0 9.0 0.00 0.00 0.00 80 1013.9
20260506122000 53 360 2.0 6.0 0.00 0.00 0.00 80 1013.7
20260506121503 54 11 2.0 12.0 0.00 0.00 0.00 79 1013.7
20260506121000 54 340 1.0 12.0 0.00 0.00 0.00 79 1013.8
20260506120005 54 314 1.0 11.0 0.00 0.00 0.00 79 1013.6
20260506115500 54 10 2.0 11.0 0.00 0.00 0.00 78 1013.5
20260506114959 54 336 1.0 10.0 0.00 0.00 0.00 78 1013.4
20260506113959 54 346 3.0 11.0 0.00 0.00 0.00 76 1013.3
20260506113500 55 329 3.0 11.0 0.00 0.00 0.00 75 1013.2
20260506113003 55 331 0.0 9.0 0.00 0.00 0.00 75 1012.8
20260506112000 55 339 2.0 10.0 0.00 0.00 0.00 74 1012.7
20260506111503 55 56 1.0 11.0 0.00 0.00 0.00 74 1012.7
20260506110500 56 44 3.0 12.0 0.00 0.00 0.00 74 1012.7
20260506110005 56 360 2.0 12.0 0.00 0.00 0.00 74 1012.6
20260506105459 56 355 2.0 9.0 0.00 0.00 0.00 74 1012.4
20260506104000 56 18 1.0 9.0 0.00 0.00 0.00 73 1012.4
20260506103459 56 345 1.0 10.0 0.00 0.00 0.00 73 1012.2
20260506103002 56 326 4.0 10.0 0.00 0.00 0.00 73 1012.2
20260506102459 56 50 1.0 9.0 0.00 0.00 0.00 73 1012.1
20260506101503 56 348 2.0 10.0 0.00 0.00 0.00 73 1011.9
20260506100959 57 348 2.0 9.0 0.00 0.00 0.00 73 1011.9
20260506100459 57 63 2.0 10.0 0.00 0.00 0.00 73 1011.8
20260506100005 57 72 3.0 10.0 0.00 0.00 0.00 72 1011.6
20260506095459 57 40 1.0 10.0 0.00 0.00 0.00 72 1011.6
20260506095000 57 38 2.0 8.0 0.00 0.00 0.00 72 1011.5
20260506094504 57 9 1.0 6.0 0.00 0.00 0.00 72 1011.4
20260506093959 57 350 2.0 6.0 0.00 0.00 0.00 72 1011.6
20260506093002 57 355 0.0 11.0 0.00 0.00 0.00 72 1011.3
20260506092459 57 41 1.0 10.0 0.00 0.00 0.00 72 1011.2
20260506091959 57 22 1.0 9.0 0.00 0.00 0.00 72 1011.2
20260506091502 57 57 1.0 9.0 0.00 0.00 0.00 72 1011.3
20260506090959 57 5 1.0 9.0 0.00 0.00 0.00 72 1011.2
20260506090459 57 18 2.0 8.0 0.00 0.00 0.00 73 1011.1
20260506085459 57 332 2.0 10.0 0.00 0.00 0.00 73 1011.0
20260506084958 58 5 2.0 10.0 0.00 0.00 0.00 73 1010.9
20260506083958 58 360 1.0 8.0 0.00 0.00 0.00 74 1010.9
20260506083457 58 309 1.0 8.0 0.00 0.00 0.00 74 1011.0
20260506083001 58 48 0.0 9.0 0.00 0.00 0.00 74 1010.9
20260506081957 58 21 2.0 6.0 0.00 0.00 0.00 74 1010.8
20260506081501 58 42 0.0 5.0 0.00 0.00 0.00 74 1010.8
20260506080957 58 65 1.0 5.0 0.00 0.00 0.00 74 1010.8
20260506080458 58 13 2.0 8.0 0.00 0.00 0.00 74 1010.9
20260506073001 58 51 0.0 4.0 0.00 0.00 0.00 75 1010.2
20260506072458 59 343 0.0 4.0 0.00 0.00 0.00 75 1010.2
20260506071958 59 59 1.0 5.0 0.00 0.00 0.00 77 1010.1
20260506071501 59 48 1.0 6.0 0.00 0.00 0.00 75 1010.2
20260506070957 59 302 1.0 6.0 0.00 0.00 0.00 75 1010.1
20260506062459 60 76 1.0 9.0 0.00 0.00 0.00 75 1010.4
20260506061957 60 64 1.0 9.0 0.00 0.00 0.00 75 1010.5
20260506061501 60 75 1.0 9.0 0.00 0.00 0.00 75 1010.4
20260506060958 60 329 3.0 9.0 0.00 0.00 0.00 75 1010.4
20260506060458 60 344 2.0 9.0 0.00 0.00 0.00 75 1010.3
20260506051004 61 348 1.0 12.0 0.00 0.00 0.00 77 1010.4
20260506044508 62 340 1.0 9.0 0.00 0.00 0.00 77 1010.4
20260506044004 62 321 3.0 8.0 0.00 0.00 0.00 76 1010.4
20260506043504 62 333 0.0 10.0 0.00 0.00 0.00 77 1010.4
20260506043007 62 331 2.0 10.0 0.00 0.00 0.00 76 1010.5
20260506042504 62 342 4.0 10.0 0.00 0.00 0.00 76 1010.2
20260506041508 62 21 2.0 10.0 0.00 0.00 0.00 76 1010.3
20260506041004 63 318 2.0 13.0 0.00 0.00 0.00 76 1010.2
20260506040503 63 329 1.0 13.0 0.00 0.00 0.00 76 1010.1
20260506040008 63 348 3.0 12.0 0.00 0.00 0.00 76 1010.1
20260506035002 63 13 4.0 12.0 0.00 0.00 0.00 76 1009.8
20260506034506 64 31 2.0 12.0 0.00 0.00 0.00 76 1009.8
20260506034003 64 360 2.0 9.0 0.00 0.00 0.00 75 1009.6
20260506032502 64 22 2.0 11.0 0.00 0.00 0.00 76 1009.5
20260506032002 64 71 0.0 10.0 0.00 0.00 0.00 76 1009.4
20260506031506 64 67 1.0 11.0 0.00 0.00 0.00 75 1009.4
20260506031002 65 344 3.0 11.0 0.00 0.00 0.00 74 1009.5
20260506030502 65 348 4.0 14.0 0.00 0.00 0.00 74 1009.5
20260506030008 65 344 4.0 15.0 0.00 0.00 0.00 75 1009.3
20260506025502 66 329 3.0 15.0 0.00 0.00 0.00 75 1009.1
20260506025002 66 32 4.0 11.0 0.00 0.00 0.00 75 1009.1
20260506024507 66 11 4.0 11.0 0.00 0.00 0.00 74 1008.9
20260506024003 67 11 4.0 11.0 0.00 0.00 0.00 74 1008.8
20260506023503 67 310 2.0 11.0 0.00 0.00 0.00 74 1008.6
20260506023006 67 355 4.0 11.0 0.00 0.00 0.00 74 1008.5
20260506022002 68 333 1.0 9.0 0.00 0.00 0.00 74 1007.9